Voltar ao catálogo

STARLINK-31135

AtivoComunicaçõesVLEO
NORAD 58771·PAYLOAD·🇺🇸 United States

Lançado Jan 14, 2024 de Vandenberg Space Force Base

Loading…

Próximas Passagens (próximas 24 horas)

TLE

AtualizadoSource: CelesTrak SupGP

Época: Sep 14, 2026, 21:53 UTC

1 58771C 24011G   26257.91229167  .00017256  00000+0  50957-3 0  2571
2 58771  53.1584 211.4880 0001335  93.2613  44.6562 15.34397111    19

Acompanhe STARLINK-31135 em tempo real com AllMySat

Download on the App Store